Location: pereira
(4.8150°N, 75.7450°W)
Time: 08:24:23
(UTC-04:00)

ISS - Visible Passes

Search period start: 25 May 2017 00:00
Search period end: 04 June 2017 00:00
Orbit: 402 x 409 km, 51.6° (Epoch: 25 May)

Date Brightness Start Highest point End Pass type
(mag) Time Alt. Az. Time Alt. Az. Time Alt. Az.
25 May -2.0 06:15:54 10° NNW 06:18:55 36° NE 06:21:56 10° ESE visible
25 May -1.2 19:28:31 10° WSW 19:31:21 27° NW 19:34:11 10° N visible
26 May -0.5 05:25:05 10° NNE 05:26:55 14° NE 05:28:45 10° E visible
27 May -3.6 06:08:07 10° NW 06:11:14 45° SW 06:14:22 10° SSE visible
28 May -3.2 05:18:23 39° N 05:19:15 55° NE 05:22:26 10° SE visible
